[Date Prev][Date Next][Thread Prev][Thread Next][Date Index][Thread Index]

[jamsat-news:1508] jas2info #228



========================   最新情報   ==============================

        Last updated :Sat.2JUN2001  12:50(JST)   #228
        
====================================================================
   
  1)アマチュア通信衛星情報、FOシリーズの軌道要素、テレメトリ、QSOの
   状況等をまとめてみました.
   
   FO−29の2001年6月2日(土)の9:58(JST)のパスでは
  JARLのホームページのとうりアナログ運用でした。 今週の観測した
  テレメトリーと最終の分析結果を掲載しておきます.

AS23660C1    2JUN2001
9:58-10:09(JST)
FREQ435.802-.788MHz

HI HI AE C7 88 55 00 D4 60 30 09 56 61       61 94 93 B0 6F AA A7 AA AB A6 
HI HI AE C7 88 55 00 D4 60 30 09 56 63 2D 7B 61 94 93 B0 80 AA A7 A9 AA A7 
HI HI AE C7 88 55 00 D4 60 30 09 56 66 31 76 61 94 93 B0 72 AA A7 A9 AA A7 
HI HI AE C7 88 55 00 D4 60 30 09 56 69 38    61 94 93 B0 AB AA A7 A9 AA A6 
HI HI AE C7 88 55 00 D4 60 30 09 56 6C 31    61 94 93 B0 6A AA A7 A9 AA A6 
HI HI AE C7 88 55 00 D4 60 30 09 56 74 2A 83 61 94 93 B0  AA A7 A9 AA A6
HI HI AE C7 88 55 00 D4 60 30 O9 56 79 2E 8E 61 94 93 B1  A AA A7 A9 AA A7 
HI HI AE C7 88 55 00 D4 60 30 09 56 7C 27 92 61 95 93 B0 86 AA A7 A9 AA A7 
HI HI AE C7 88 55 00 D4 60 30 09 56 7A 24 8E 61 95 93 B0 52 AA A7 A9 AA A7 
HI HI AE C7 88 55 00 D4 60 30 09 56 72 23 89 61 95 93 B0 C5 A9 A7 A9 AA A7 
HI HI AE C7 88 55 00 D4 60 30 09 56 64 25 8C 61 95 93 B0 7B AA A7 A9 AA A7 
HI HI AE C7 88 55 00 D4 60 30 09 56 51 2D 68 61 95 93 B0 5B A9 A6 A9 AA A7
HI HI AE C7 88 55 00 D4 60 30 09 56 3D 39 85 61 95 93 B0 90 A9 A6 A9 AA A7 
HI HI AE C7 88 55 00 D4 60 30 09 56 2B 4A 7D 61 95 93 B0 90 A9 A6 A9 AA A7 
HI HI AE C7 88 55 O0 D4 60 30 09 56 24 3D 85 61 95 93 B0 90 A9 A6 A9 AA A7 
HI HI AE C7 88 55 00 D4 60 30 09 56 1B 6F 84 61 95 93 B0 90 A9 A6 A9 AA A7

AS23639C1   31MAY2001
19:28-19:41(JST)
FREQ.435.801-.789MHz

HI HI AE C7 88 55 00 D4 C3 B5 09 04 39 61 49 62 90 8F 9F 85 A6 A3 A4 A6 A6 
HI HI AE C7 88 55 00 D4 C3 B5 09 05 35    4C 62 90 8F B0 84 A6 A3 A4 A6 A6 
HI HI AE C7 88 55 00 D4 C3 B5 09 04 30 63 51 60 91 8F B0 92 A6 A3 A4 A6 A6 
HI HI AE C7 88 55 00 D4 C3 B5 09 04 32 77 5A 60 93 91 B0 73 A6 A3 A4 A6 A6 
HI HI AE C7 88 55 00 D4 C3 B5 09 04 38 89 65 61 94 92 B0 71 A6 A2 A4 A6 A6 
HI HI AE C7 88 55 00 D4 C3 B5 09 04 42 97 70 6  94 93 B0 73 A6 A2 A4 I6 A6 
HI HI AE C7 88 55 00 D4 C3 B5 09 04 4F AE 72 61 95 63 B0 78 A6 A2 A4 A6 A6 
HI HI AE C7 88 55 00 D4 C3 B5 09 04 5E AE 71 61 95 94 B0 7C A6 A2 A4 A6 A6 
HI HI AE C7 88 55 00 D4 C3 B5 09 04 6C A3 6D 62 96 94 B0 51 A6 A2 A4 A6 A6 
HI HI AE C7 88 55 00 D4 C3 B5 09 04 78 9E 61 62 96 94 B0 90 A6 A2 A4 A6 A6 
HI HI AE C7 88 55 00 D5 C3 B5 09 04 84 95 5B 62 96 94 B0 CB A6 A2 A3 A6 A6 
HI HI AE C7 88 55 00 D4 C3 B5 09 04 8C 8B 63 62 96 94 B0 7A A6 A2 A3 A5 A6 
HI HI AE C7 88 55 00 D4 C3 B5 09 04 91 81 6C 62 96 94 B0 87 A6 A2 A3 A5 A6 
HI HI AE C7 88 55 00 D4 C3 B5 09 04 92 77 6D 62 96 94 B0 74 A6 A2 A3 A5 A6  
HI HI AE C7 88 55 00 D4 C3 B5 09 04 90 71 6D 62 96 94 B0 6A A5 A2 A3 A5 A6 
HI HI AE C7 88 55 00 D4 C3 B5 09 04 8E 6C 6A 62 96 95 B0 79 A5 A2 A3 A5 A6 
HI HI AE C7 88 55 00 D4 C3 B5 09 04 8A 6A 0D 62 96 95 B0 8B A5 A2 A3 A5 A6

AS23626C1   30MAY2001
20:30-20:38(JST)
FREQ.435.792-.787MHz

HI HI AE C7 88 55 00 D4 20 A0 09 54 81 4E 45 64 94 90 A3 78 A6 A3 A4 A5 A6 
HI HI AE C7 88 55 00 D4 20 A0 09 54 8B 4A 48 64 94 92 A5 7D A6 A3 A4 A5 A6 
HI HI AE C7 88 55 00 D4 20 A0 09 54 92 55 49 64 92 90 A6 86 A6 A3 A4 A5 A6 
HI HI AE C7 88 55 00 D4 20 A0 09 54 96 62 4C 63 92 90 AC 76 A6 A3 A4 A5 A6 
HI HI AE C7 88 55 00 D4 20 A0 09 54 97 6E 52 60 93 91 AF 7C A6 A3 A4 A5 A6 
HI HI AE C7 88 55 00 D4 20 A0 09 54 94 7A 5B 61 94 92 B0 AB A6 A3 A4 A5 A6 
HI HI AE C7 88 55 00 D4 20 A0 09 54 91 83 62 61 95 93 B0 8E A6 A3 A4 A5 A6 
HI HI AE C7 88 55 00 D4 20 A0 09 54 8C 8A 54 62 95 93 9A 71 A6 A3 A4 A5 A6 
HI HI AE C7 88 55 00 D4 20 A0 09 54 88 8D 00 86 89 88 93 64 A6 A3 A3 A4 A5 
HI HI AE 07 88 55 00 D4 20 A0 09 54 84 90 00 87 86 85 91 A8 A6 A3 A3 A5 A5 
HI HI AE 07 88 55 00 D4 20 A0 09 54 82 91 00 89 85 85 90 7D AB A3 A3 A4 A5 
HI HI AE 07 88 55 00 D4 20 A0 09 54 80 92 00 88 85 84 90 81 A6 A3 A3 A4 A5 
 
AS23606C1  29MAY2001
10:10-10:15(JST)

HI HI AE C7 88 55 00 D5 B4 EF 09 46    3A 8C B2 94 93 B1 8D AA A8 A9 AA A8 
HI HI AE C7 86 55 00 D4 B4 EE 09 46 58 43 88 61 95 92 B0 81 AA A8 A9 AA A8 
HI HI AE C7 88 55 00 D4 B4 EF 09 46 43 51 85 61 94 93 B0 7C AA A7 A9 AA A8 
HI HI AE C7 88 55 00 D4 B4 EF 09 46 33 64 7D 61 95 93 B0 5B AA A7 A9 AA A8 
HI HI AE C7 88 55 00 D4 B4 EF 09 45

 ------------------------ FO-29の軌道要素 ------------------------------        
 
  ■ 軌道要素1:「jamsat−keps:1006」より         
          SB KEPS @ AMSAT  $ORB01151.N
          2Line Orbital Elements 01151.AMSAT

HR AMSAT ORBITAL ELEMENTS FOR AMATEUR SATELLITES IN NASA FORMAT
FROM WA5QGD FORT WORTH,TX May 31, 2001
SEND SUBSCRIBE/UNSUBSCRIBE TO majordomo@amsat.org ONLY
BID: ORB01151.N

 DECODE 2-LINE ELSETS WITH THE FOLLOWING KEY:
 1 AAAAAU 00  0  0 BBBBB.BBBBBBBB  .CCCCCCCC  00000-0  00000-0 0  DDDZ
 2 AAAAA EEE.EEEE FFF.FFFF GGGGGGG HHH.HHHH III.IIII JJ.JJJJJJJJKKKKKZ
 KEY: A-CATALOGNUM B-EPOCHTIME C-DECAY D-ELSETNUM E-INCLINATION F-RAAN
 G-ECCENTRICITY H-ARGPERIGEE I-MNANOM J-MNMOTION K-ORBITNUM Z-CHECKSUM

FO-29
1 24278U 96046B   01150.59754405 -.00000014  00000-0  20080-4 0 04539
2 24278 098.5466 018.2060 0351819 047.5025 315.5284 13.52772876236265

 ■ 軌道要素2:「jamsat−keps:10107」より
        SB KEPS @ AMSAT  $ORB01151.O
        Orbital Elements  01151.OSCAR

HR AMSAT ORBITAL ELEMENTS FOR OSCAR SATELLITES
FROM WA5QGD FORT WORTH,TX May 31, 2001
SEND SUBSCRIBE/UNSUBSCRIBE TO majordomo@amsat.org ONLY
BID: ORB01151.O
TO ALL RADIO AMATEURS BT
 
Satellite: FO-29
Catalog number: 24278
Epoch time:      01150.59754405
Element set:    0453
Inclination:      098.5466 deg
RA of node:       018.2060 deg
Eccentricity:    0.0351819
Arg of perigee:   047.5025 deg
Mean anomaly:     315.5284 deg
Mean motion:   13.52772876 rev/day
Decay rate:       -1.4e-07 rev/day^2
Epoch rev:           23626
Checksum:              309

-------------------  FO-29(JAS-2)のテレメトリに関する情報  ---------------------- 
 
2)上記6月2日(土)のテレメトリ最終行を分析しておきます.

AS23660C1    2JUN2001
9:58-10:09(JST)
FREQ435.802-.788MHz

HI HI AE C7 88 55 00 D4 60 30 09 56 1B 6F 84 61 95 93 B0 90 A9 A6 A9 AA A7

テレメトリ   内 容       換算算値 単 位  
3C	磁気センサーZ軸=	13235.3	[nT]
3D	磁気センサX軸	=	54411.8	[nT]
4A	太陽電池発生電流=	 1294.1	[mA]
4B	B充放電電流	=	  -98.8	[mA]
4C	B端子電圧	=	   16.0	[V]
4D	B中間端子電圧	=	    7.1	[V]
5A	バス電圧	=	   17.3	[V]
5B	JTA送信電力	=	  837.9	[mW]
5C 	構体温度1	=	   16.2	[℃]
5D	構体温度2	=	   17.4	[℃]
6A	構体温度3	=	   16.2	[℃]
6B	構体温度4	=	   15.9	[℃]
6C	Bセル温度	=	   17.0	[℃]
   	
 ========================== FO-29(ふじ3号)のQSO情報等 ======================
   
 3)[jamsat-bb:

 ===============================================================================
   4)JARL のホームページに運用予定が記載されていましたのでご紹介します.
       ( http://www.jarl.or.jp/Japanese/3_Fuji/new/uy.htm )

        ■ ふじ3号/FOー29/JAS-2 ■  
   
     *** 運用予定について ***

     4月2日 〜 7月2日 アナログ系運用

  *なお,運用予定は都合により変更することがありますので予めご了承願います。

 照会先 : lab@jarl.or.jp

 最新の情報はテレホンサービス(03−3942−1000)をお聞きください。  
 以後の運用につきましては平成13年7月上旬にお知らせ致します。    
    
-----------------------    FO−20(JAS-1b)道要素   -------------------------
  5)
  ■ 軌道要素1 :出典はFO-29「ふじ3号」に同じ.
  
FO-20
1 20480U 90013C   01150.70707867  .00000010  00000-0  97920-4 0 03510
2 20480 099.0602 222.3918 0540719 348.8337 010.1143 12.83293121529852
 
  ■ 軌道要素2 :出典はFO−29「ふじ3号」に同じ.
               
Satellite: FO-20
Catalog number: 20480
Epoch time:      01150.70707867
Element set:    0351
Inclination:      099.0602 deg
RA of node:       222.3918 deg
Eccentricity:    0.0540719
Arg of perigee:   348.8337 deg
Mean anomaly:     010.1143 deg
Mean motion:   12.83293121 rev/day
Decay rate:        1.0e-07 rev/day^2
Epoch rev:           52985
Checksum:              272
 
 --------------------------------------------------------------------------------
 
         ■ ふじ2号/FO−20/JAS-1b ■      
            
          「ふじ2号」 現況                                                                                  
             
   JAS-1b(ふじ2号)のCWテレメトリ信号に,1997年10月12日12時(JST)の
 日本上空通過時,3桁の数字が繰り返されるはずが3個の長音の繰り返しとなっているという
 異常が発見されました。この不具合は次の通過時からは回復していましたが13日15時20分の
 通過時に再び観測されました。現在はA0の送信が続いています。衛星のアナログ系中継モード
 動作は異常が無く,正常時のテレメトリ内容からは衛星の動作に異常は認められません。従って,
 直ちに衛星のミッションに影響することは無いと予想されますので,当面はアナログ系中継
 モードを継続します。衛星は既に打ち上げてから7年8ヶ月を経ておりますので,今後は監視を
 強化する予定です。アマチュア各位のレポートをお待ちします。
 -------------------------------------------------------------------------------- 
  1997年10月14日 00時35分 確認のテレメトリ音 151 KB (A0) 
  1997年10月14日 11時10分 確認のテレメトリ音 216 KB (異常キーイング) 

  以上 JARLのホ−ムページの http://www.jarl.or.jp/Japanese/3_Fuji/new/fuji.htm

===================== FO-20 ふじ2号 のテレメトリ観測結果 ====================

   5月29日(金)の観測結果では以前観測した単一周波数のドップラー効果で
 周波数がずれていくのみの状態でした。
                                         
   =============   JAS-2 (ふじ3号)と現在までの情報   ===========
  
  A.電話によるふじ3号の運用情報
      社団法人日本アマチュア連盟によるサービス
           TEL .   03− 3942 − 1000
  B.アマチュア無線FAXサービス
      JARLによるふじ3号の軌道情報(オービットカレンダー)
         FAX No.  03− 3233 −0055
  C.WWWブラウザで情報を簡単に見れる人のためにJAS−2
     ふじ3号の衛星としての運用されるまでの名前)の概要、打ち上げ
     までの状況、運用中における状況を説明したホームページを紹介し
     ておきます.
     社団法人日本アマチュア無線連盟(JARL)のホームページ

          http://www.jarl.or.jp/Japanese/3_Fuji/jasmenu.htm
 
     宇宙開発事業団(NASDA)ホームページ 
          http://www.nasda.go.jp/
         打上げ衛星 :地球観測プラットフォーム技術衛星(ADEOS) 
                       アマチュア衛星3号(JAS-2)
          http://yyy.tksc.nasda.go.jp/Home/Press/Press-j/jas-2_j.html        

  D.JAMSATによる軌道情報の活用
        JAMSATのホームページまたはjamsat−kepsの軌道要素より
      衛星の軌道情報を得る.
     JAMSATホームページ
               URL    http://www.jamsat.or.jp
       上記ホームページでは各地で行われるアマチュア通信衛星に関する
      ミューティングのお知らせや世界のアマチュア衛星に関する情報が
      満載されています.
 ========================================================================  
     JAMSATのメンバーのご協力によりJH6MME(高山 秀造)が
    執筆・編集を担当しております.ご指摘の意見、疑問やこのようにしたら
    というアイデアがありましたら小さなことでもかまいませんので気軽に下
    記アドレスまでご連絡ください.jamsat−newsからjas2
    infoへの転載をJH4PHW局坂井さんに担当して頂いております.  
                  E-mail : jh6mme@jamsat.or.jp : jh4phw@jamsat.or.jp
 ===============================   END  ===============================